SCP
0 0 0 0 0 0 0 0 0 0 0 -0 0 0 -0 -0 -0 0 -0 -0 0 -0 0 0 -0 0 0 0 0 0 0 -0 0 -0 0 0 0 -0 0 0 -0 0 0 0
0 0 0 0 0 0 0 0 0 0 0 0 -0 0 0 0 -0 -0 -0 -0 -0 0 -0 -0 0 0 0 0 0 0 0 -0 0 -0 0 0 0 0 0 -0 0 0 0 0
0 0 0 0 0 0 0 0 0 0 0 0 0 0 0 0 -0 -0 -0 -0 0 0 -0 -0 0 -0 0 0 0 0 0 -0 -0 0 0 0 0 -0 -0 -0 -0 0 0 0
0 0 0 0 0 0 0 0 0 0 0 0 -0 0 -0 -0 0 -0 -0 0 0 0 -0 0 0 0 0 0 0 0 0 -0 -0 0 0 0 0 0 0 -0 -0 -0 0 0
0 0 0 0 0 0 0 0 0 0 0 0 0 0 0 -0 0 0 0 0 0 0 0 -0 0 0 0 0 0 0 0 0 0 -0 0 0 0 0 0 0 -0 0 -0 0
0 0 0 0 0 0 0 0 0 0 0 0 0 -0 0 0 0 0 0 -0 0 -0 0 0 0 0 0 0 0 0 0 0 0 0 0 0 0 0 0 -0 0 -0 -0 -0
0 0 0 0 0 0 0 0 0 0 0 0 0 0 0 0 0 0 0 0 0 -0 -0 -0 0 0 0 0 0 0 0 0 0 0 0 0 0 0 0 0 0 0 -0 -0
0 0 0 0 0 0 0 -0 0 0 0 0 0 0 0 0 0 0 0 0 0 -0 -0 -0 0 0 0 0 0 0 0 0 0 0 0 0 0 0 0 0 0 0 -0 -0
0 0 0 0 0 0 0 0 -0 0 0 0 0 0 0 0 0 0 0 1 0 0 0 0 0 0 0 0 0 0 0 0 0 0 0 0 0 -0 0 0 0 0 0 0
0 0 0 0 0 0 0 0 0 0 0 0 0 0 0 0 0 0 1 1 1 1 1 1 0 0 0 0 0 0 0 0 0 0 0 0 0 0 0 0 0 0 0 -0
0 0 0 0 0 0 0 0 0 0 0 0 0 0 0 0 0 0 0 0 1 1 1 1 1 0 0 0 0 0 0 0 0 0 1 1 0 0 0 0 0 0 0 0
0 0 -0 -0 0 0 0 0 0 0 0 0 0 0 0 0 0 0 0 0 0 0 0 0 0 1 0 0 0 0 0 0 0 0 1 0 0 0 0 0 0 0 0 0
0 0 0 0 0 0 0 0 0 0 0 0 0 0 0 0 0 0 0 0 0 0 0 0 0 0 0 0 1 0 0 0 0 0 0 1 1 0 0 0 0 0 0 0
0 0 0 0 0 0 0 0 0 0 0 0 0 0 0 0 0 0 0 0 0 0 0 0 0 0 0 0 0 0 0 1 1 1 0 1 1 1 1 1 1 1 1 1
0 0 0 0 0 0 0 0 0 0 0 0 0 0 0 0 0 0 0 0 0 0 0 0 0 0 0 0 0 0 0 0 2 1 1 1 1 1 1 1 1 1 1 1
0 0 0 0 0 0 0 0 0 0 0 0 0 0 0 0 0 0 0 0 0 0 0 0 0 0 0 0 0 0 0 0 1 2 1 2 2 2 1 1 1 1 1 1
0 0 0 0 0 0 0 0 0 0 0 0 0 0 0 0 0 0 0 0 0 0 0 0 0 0 0 0 0 0 0 0 0 0 0 0 2 2 2 2 2 1 2 2
0 0 0 0 0 0 0 0 0 0 0 0 0 0 0 0 0 0 0 0 0 0 0 0 0 0 0 0 0 0 0 0 0 0 0 0 0 1 2 2 3 3 2 2
0 0 0 0 0 0 0 0 0 0 0 0 0 0 0 0 0 0 0 0 0 0 0 0 0 0 0 0 0 0 0 0 0 0 0 0 0 0 0 2 2 2 2 2
0 0 0 0 0 0 0 0 0 0 0 0 0 0 0 0 0 0 0 0 0 0 0 0 0 0 0 0 0 0 0 0 0 0 0 0 0 0 0 0 1 2 2 2
0 0 0 0 0 0 0 0 0 0 0 0 0 0 0 0 0 0 0 0 0 0 0 0 0 0 0 0 0 0 0 0 0 0 0 0 0 0 0 0 1 2 2 3
0 0 0 0 0 0 0 0 0 0 0 0 0 0 0 0 0 0 0 0 0 0 0 0 0 0 0 0 0 0 0 0 0 0 0 0 0 0 0 0 0 1 2 2
0 0 0 0 0 0 0 0 0 0 0 0 0 0 0 0 0 0 0 0 0 0 0 0 0 0 0 0 0 0 0 0 0 0 0 0 0 0 0 0 0 0 1 1
0 0 0 0 0 0 0 0 0 0 0 0 0 0 0 0 0 0 0 0 0 0 0 0 0 0 0 0 0 0 0 0 0 0 0 0 0 0 0 0 0 0 0 0
0 0 0 0 0 0 0 0 0 0 0 0 0 0 0 0 0 0 0 0 0 0 0 0 0 0 0 0 0 0 0 0 0 0 0 0 0 0 0 0 0 0 0 0
0 0 0 0 0 0 0 0 0 0 0 0 0 0 0 0 0 0 0 0 0 0 0 0 0 0 0 0 0 0 0 0 0 0 0 0 0 0 0 0 0 -0 -0 0
Wind_Speed_500mb
39 25 33 40 41 40 35 39 29 23 30 24 21 25 41 37 32 35 31 40 40 46 45 42 41 39 36 35 34 33 32 31 30 24 23 20 16 15 15 14 12 12 10 8
27 36 32 30 32 38 31 42 28 26 18 17 33 38 32 38 49 41 40 45 47 45 47 45 41 40 39 37 35 37 35 32 31 24 24 18 22 18 13 16 10 14 12 11
30 30 31 25 28 26 33 33 26 30 15 31 28 28 23 24 27 62 46 43 49 49 52 51 46 42 38 37 39 40 39 36 35 26 22 22 17 16 12 15 9 16 14 12
31 21 34 26 31 34 36 32 21 24 30 24 29 17 39 39 31 24 37 44 46 53 55 55 50 45 40 36 39 39 38 38 36 33 23 20 17 16 19 16 20 11 16 15
33 23 26 32 34 31 22 31 7 28 27 22 32 16 15 41 35 32 40 40 47 65 53 58 52 49 44 36 38 40 40 39 37 37 29 16 21 17 18 14 17 15 16 17
31 25 25 36 33 32 10 26 19 18 28 27 23 28 24 16 24 8 36 43 45 49 51 58 55 56 47 42 40 39 40 39 41 36 39 31 20 15 15 13 12 14 14 13
26 19 33 28 34 28 23 30 23 23 23 22 33 32 23 21 14 4 23 47 40 53 55 45 55 62 49 51 45 43 42 42 41 39 34 33 29 20 15 8 14 13 16 24
24 29 25 26 34 25 34 40 24 23 26 29 35 17 18 21 19 16 14 9 46 39 64 53 49 53 55 52 49 45 47 43 42 43 42 36 31 24 20 20 23 19 16 22
29 21 14 11 28 11 35 40 47 24 28 27 26 39 23 24 25 25 28 17 19 38 33 49 53 52 53 54 49 47 47 50 45 42 44 42 38 33 26 24 21 22 21 34
11 22 27 21 16 28 27 30 39 19 26 35 32 34 27 28 26 24 28 49 44 37 25 8 8 29 45 50 47 46 47 48 44 42 42 41 40 38 40 33 31 29 26 17
21 10 22 13 31 32 24 26 39 27 31 27 22 20 37 28 27 29 48 38 35 37 38 28 14 20 14 34 39 42 44 43 43 42 44 43 40 39 37 37 35 32 36 31
8 14 24 34 9 11 22 26 32 22 39 27 8 20 28 32 35 47 40 31 37 41 37 29 30 25 13 6 23 34 44 42 41 41 41 44 41 40 40 40 39 35 32 35
3 18 13 13 16 18 22 20 25 36 35 29 29 24 20 35 33 39 41 35 33 33 35 35 36 36 32 24 10 15 27 35 38 38 41 42 42 41 43 43 41 41 38 33
10 23 18 8 17 30 37 14 25 26 22 23 17 48 37 33 31 33 35 33 33 33 34 36 39 41 39 33 14 19 15 6 20 32 40 42 42 42 41 41 43 42 46 42
9 19 10 7 13 14 20 28 15 31 32 17 39 40 34 32 26 28 33 28 29 31 34 36 36 36 41 41 26 3 4 1 13 12 25 39 39 38 40 41 42 43 45 47
7 7 17 14 2 2 12 14 9 11 5 15 45 33 30 27 30 24 23 25 26 28 30 31 33 34 35 39 39 28 9 9 6 10 16 28 19 38 40 41 43 44 46 48
10 10 13 24 13 11 23 26 23 17 11 17 27 35 28 22 18 18 20 21 23 23 24 26 29 31 32 33 32 38 34 15 8 11 14 22 30 30 34 38 42 46 47 46
10 19 17 22 11 23 7 13 6 16 18 12 27 23 27 21 15 24 17 16 17 19 20 21 21 23 25 26 28 28 30 35 18 10 13 17 17 23 33 40 41 44 47 48
9 14 14 21 20 10 13 10 13 22 21 3 25 20 21 17 20 23 14 13 13 14 16 18 20 21 22 22 25 27 25 26 29 26 16 18 18 21 21 27 35 44 51 51
11 14 13 15 22 31 28 22 6 3 21 19 14 17 14 13 20 25 5 8 10 13 15 19 22 22 21 22 23 25 24 24 24 28 30 27 21 16 22 33 27 31 43 43
14 14 19 19 16 8 22 17 13 18 12 24 18 15 8 4 26 13 8 11 14 16 16 18 21 22 23 24 26 27 26 23 25 27 26 29 28 21 15 9 10 23 36 39
14 10 12 18 19 20 26 15 11 21 27 24 17 14 14 11 6 8 10 12 14 16 19 20 21 21 23 26 28 30 30 31 30 30 30 31 33 31 28 27 18 16 20 26
9 4 8 7 9 16 19 11 22 19 23 17 16 14 9 5 3 5 8 11 14 17 20 21 22 25 24 23 27 34 35 35 39 34 36 34 36 37 38 34 28 21 19 17
14 5 4 7 17 10 19 14 12 12 17 15 12 9 6 4 3 5 9 11 15 18 23 23 21 19 22 26 30 36 40 40 39 42 37 40 35 36 40 36 26 24 22 23
14 16 16 17 8 15 19 18 18 18 16 13 9 6 4 2 4 8 10 12 13 16 19 23 24 25 27 30 34 35 36 39 41 44 40 40 42 36 37 39 34 36 36 31
24 17 14 10 18 25 19 32 24 23 18 13 10 7 2 1 5 9 10 10 13 15 20 21 25 28 32 35 33 36 31 33 38 44 44 41 41 43 40 38 42 40 49 54
Wind_Direction_500mb
197 211 208 201 210 230 206 228 198 167 151 205 142 119 138 153 160 168 186 182 187 195 178 179 180 181 181 179 175 173 171 175 166 172 170 172 177 175 169 165 191 178 159 176
185 218 211 227 214 238 245 216 199 128 150 248 151 159 136 163 158 169 185 196 190 194 176 178 179 179 182 183 180 177 177 181 170 173 174 180 186 180 193 225 183 159 167 182
210 206 227 217 205 211 232 217 188 158 172 244 159 139 155 168 181 164 179 192 189 186 180 176 179 179 184 187 187 185 182 183 172 181 186 190 189 141 168 197 189 171 177 181
231 219 205 205 195 216 205 235 181 192 191 203 219 179 171 163 167 190 178 185 184 183 192 181 179 185 185 188 190 188 186 185 186 178 189 208 179 187 180 179 178 175 174 177
212 195 200 205 216 204 234 211 243 173 216 200 185 226 175 156 171 174 181 184 182 181 199 188 188 189 186 185 187 189 187 189 190 190 174 205 204 224 155 185 175 168 199 175
242 210 192 210 213 192 262 160 210 210 233 242 195 227 182 124 113 144 176 185 193 170 186 194 191 188 189 186 185 189 191 196 191 199 194 188 205 216 197 204 174 186 184 174
218 223 197 226 201 186 183 191 187 202 215 224 208 209 85 97 96 181 198 176 196 177 177 199 186 187 188 189 190 190 200 202 203 203 204 210 199 210 237 177 213 207 212 192
198 184 177 207 232 177 203 208 198 189 205 203 185 154 111 103 104 78 94 186 179 204 170 178 189 189 190 196 195 198 202 214 206 208 212 215 215 206 218 223 219 214 216 182
183 160 115 238 237 273 198 234 234 274 200 214 120 100 118 115 109 112 100 84 132 185 182 175 194 187 192 195 199 201 204 221 211 214 216 217 218 205 210 216 227 222 225 233
270 130 188 173 250 244 266 220 240 241 238 208 150 159 136 139 108 90 86 57 37 36 40 46 236 200 195 197 201 206 208 213 212 211 214 216 219 221 206 209 212 214 221 250
304 197 168 170 206 206 213 241 235 231 256 213 154 112 118 119 118 109 70 55 51 44 40 50 40 255 240 210 204 206 210 213 215 216 215 215 217 216 217 211 216 225 220 215
292 274 162 202 80 314 295 230 235 239 227 267 315 99 121 131 122 99 86 74 58 50 45 39 32 39 82 123 206 222 209 213 219 220 218 220 219 215 217 215 214 222 232 226
355 259 150 182 187 210 237 216 268 233 262 236 252 138 146 120 108 102 108 101 81 70 63 57 45 34 28 25 124 181 208 220 216 217 219 219 221 220 217 221 215 216 230 238
285 262 277 8 275 194 212 219 235 270 241 250 258 138 154 130 121 115 102 89 80 72 63 56 52 42 33 31 19 186 156 163 219 220 216 217 219 221 221 222 223 219 222 232
303 262 267 61 6 339 179 199 206 243 257 312 129 135 136 127 109 100 107 93 82 71 61 56 50 44 40 31 27 10 157 275 205 219 227 214 218 222 224 223 224 225 224 227
262 212 288 212 259 255 247 201 217 281 336 259 111 108 101 122 123 108 99 91 77 63 54 50 46 42 37 34 26 18 356 243 208 193 228 244 220 222 227 227 225 227 228 229
261 247 222 256 181 259 245 237 211 216 212 305 166 142 142 130 121 115 102 82 68 59 48 40 34 31 28 27 22 18 11 356 277 217 229 238 240 243 232 231 229 230 232 227
233 238 238 254 162 236 95 10 315 197 150 92 96 126 134 133 139 121 93 70 49 38 32 28 22 16 17 16 15 18 15 7 3 289 255 238 226 237 238 235 232 233 234 236
255 234 230 250 212 153 162 171 176 184 158 209 135 143 147 151 145 135 106 56 40 17 4 358 356 356 358 358 358 360 10 9 4 359 336 283 262 253 240 240 247 246 240 238
208 263 255 216 263 228 81 102 65 233 178 169 168 156 158 190 210 111 96 8 355 343 338 335 332 336 331 337 337 340 345 352 350 355 350 355 342 294 274 260 253 241 240 242
201 217 226 231 239 118 106 126 159 208 113 143 153 139 156 236 55 85 48 16 356 341 329 317 322 315 317 321 322 321 322 327 326 329 332 333 332 332 323 284 254 274 261 253
206 204 218 244 230 233 132 141 230 95 127 130 130 122 114 103 76 67 39 18 7 358 346 333 318 305 301 305 311 308 307 302 305 311 312 313 316 310 313 307 299 284 291 283
276 268 262 309 36 93 139 76 126 138 140 131 132 130 119 111 63 8 350 349 348 348 343 340 327 314 310 303 300 301 299 302 296 291 297 298 301 305 302 301 311 310 315 291
235 270 260 322 177 168 149 135 155 164 139 144 138 129 124 100 48 359 338 335 333 336 338 341 332 323 310 307 303 294 293 293 292 289 286 292 291 296 297 291 288 290 281 279
252 162 220 238 143 177 192 186 169 157 151 150 140 132 110 84 32 357 342 331 325 322 329 325 325 321 319 317 313 309 298 287 286 284 282 278 285 285 286 290 283 276 267 274
236 229 215 237 216 205 221 196 186 184 184 180 178 174 165 38 5 349 339 326 317 314 316 321 321 315 313 311 311 312 296 273 274 276 274 274 273 279 278 277 286 286 284 279
Wind_Speed_850mb
39 25 33 40 41 40 35 39 29 23 30 24 21 25 41 37 32 35 31 40 40 46 45 42 41 39 36 35 34 33 32 31 30 24 23 20 16 15 15 14 12 12 10 8
27 36 32 30 32 38 31 42 28 26 18 17 33 38 32 38 49 41 40 45 47 45 47 45 41 40 39 37 35 37 35 32 31 24 24 18 22 18 13 16 10 14 12 11
30 30 31 25 28 26 33 33 26 30 15 31 28 28 23 24 27 62 46 43 49 49 52 51 46 42 38 37 39 40 39 36 35 26 22 22 17 16 12 15 9 16 14 12
31 21 34 26 31 34 36 32 21 24 30 24 29 17 39 39 31 24 37 44 46 53 55 55 50 45 40 36 39 39 38 38 36 33 23 20 17 16 19 16 20 11 16 15
33 23 26 32 34 31 22 31 7 28 27 22 32 16 15 41 35 32 40 40 47 65 53 58 52 49 44 36 38 40 40 39 37 37 29 16 21 17 18 14 17 15 16 17
31 25 25 36 33 32 10 26 19 18 28 27 23 28 24 16 24 8 36 43 45 49 51 58 55 56 47 42 40 39 40 39 41 36 39 31 20 15 15 13 12 14 14 13
26 19 33 28 34 28 23 30 23 23 23 22 33 32 23 21 14 4 23 47 40 53 55 45 55 62 49 51 45 43 42 42 41 39 34 33 29 20 15 8 14 13 16 24
24 29 25 26 34 25 34 40 24 23 26 29 35 17 18 21 19 16 14 9 46 39 64 53 49 53 55 52 49 45 47 43 42 43 42 36 31 24 20 20 23 19 16 22
29 21 14 11 28 11 35 40 47 24 28 27 26 39 23 24 25 25 28 17 19 38 33 49 53 52 53 54 49 47 47 50 45 42 44 42 38 33 26 24 21 22 21 34
11 22 27 21 16 28 27 30 39 19 26 35 32 34 27 28 26 24 28 49 44 37 25 8 8 29 45 50 47 46 47 48 44 42 42 41 40 38 40 33 31 29 26 17
21 10 22 13 31 32 24 26 39 27 31 27 22 20 37 28 27 29 48 38 35 37 38 28 14 20 14 34 39 42 44 43 43 42 44 43 40 39 37 37 35 32 36 31
8 14 24 34 9 11 22 26 32 22 39 27 8 20 28 32 35 47 40 31 37 41 37 29 30 25 13 6 23 34 44 42 41 41 41 44 41 40 40 40 39 35 32 35
3 18 13 13 16 18 22 20 25 36 35 29 29 24 20 35 33 39 41 35 33 33 35 35 36 36 32 24 10 15 27 35 38 38 41 42 42 41 43 43 41 41 38 33
10 23 18 8 17 30 37 14 25 26 22 23 17 48 37 33 31 33 35 33 33 33 34 36 39 41 39 33 14 19 15 6 20 32 40 42 42 42 41 41 43 42 46 42
9 19 10 7 13 14 20 28 15 31 32 17 39 40 34 32 26 28 33 28 29 31 34 36 36 36 41 41 26 3 4 1 13 12 25 39 39 38 40 41 42 43 45 47
7 7 17 14 2 2 12 14 9 11 5 15 45 33 30 27 30 24 23 25 26 28 30 31 33 34 35 39 39 28 9 9 6 10 16 28 19 38 40 41 43 44 46 48
10 10 13 24 13 11 23 26 23 17 11 17 27 35 28 22 18 18 20 21 23 23 24 26 29 31 32 33 32 38 34 15 8 11 14 22 30 30 34 38 42 46 47 46
10 19 17 22 11 23 7 13 6 16 18 12 27 23 27 21 15 24 17 16 17 19 20 21 21 23 25 26 28 28 30 35 18 10 13 17 17 23 33 40 41 44 47 48
9 14 14 21 20 10 13 10 13 22 21 3 25 20 21 17 20 23 14 13 13 14 16 18 20 21 22 22 25 27 25 26 29 26 16 18 18 21 21 27 35 44 51 51
11 14 13 15 22 31 28 22 6 3 21 19 14 17 14 13 20 25 5 8 10 13 15 19 22 22 21 22 23 25 24 24 24 28 30 27 21 16 22 33 27 31 43 43
14 14 19 19 16 8 22 17 13 18 12 24 18 15 8 4 26 13 8 11 14 16 16 18 21 22 23 24 26 27 26 23 25 27 26 29 28 21 15 9 10 23 36 39
14 10 12 18 19 20 26 15 11 21 27 24 17 14 14 11 6 8 10 12 14 16 19 20 21 21 23 26 28 30 30 31 30 30 30 31 33 31 28 27 18 16 20 26
9 4 8 7 9 16 19 11 22 19 23 17 16 14 9 5 3 5 8 11 14 17 20 21 22 25 24 23 27 34 35 35 39 34 36 34 36 37 38 34 28 21 19 17
14 5 4 7 17 10 19 14 12 12 17 15 12 9 6 4 3 5 9 11 15 18 23 23 21 19 22 26 30 36 40 40 39 42 37 40 35 36 40 36 26 24 22 23
14 16 16 17 8 15 19 18 18 18 16 13 9 6 4 2 4 8 10 12 13 16 19 23 24 25 27 30 34 35 36 39 41 44 40 40 42 36 37 39 34 36 36 31
24 17 14 10 18 25 19 32 24 23 18 13 10 7 2 1 5 9 10 10 13 15 20 21 25 28 32 35 33 36 31 33 38 44 44 41 41 43 40 38 42 40 49 54
Wind_Direction_850mb
197 211 208 201 210 230 206 228 198 167 151 205 142 119 138 153 160 168 186 182 187 195 178 179 180 181 181 179 175 173 171 175 166 172 170 172 177 175 169 165 191 178 159 176
185 218 211 227 214 238 245 216 199 128 150 248 151 159 136 163 158 169 185 196 190 194 176 178 179 179 182 183 180 177 177 181 170 173 174 180 186 180 193 225 183 159 167 182
210 206 227 217 205 211 232 217 188 158 172 244 159 139 155 168 181 164 179 192 189 186 180 176 179 179 184 187 187 185 182 183 172 181 186 190 189 141 168 197 189 171 177 181
231 219 205 205 195 216 205 235 181 192 191 203 219 179 171 163 167 190 178 185 184 183 192 181 179 185 185 188 190 188 186 185 186 178 189 208 179 187 180 179 178 175 174 177
212 195 200 205 216 204 234 211 243 173 216 200 185 226 175 156 171 174 181 184 182 181 199 188 188 189 186 185 187 189 187 189 190 190 174 205 204 224 155 185 175 168 199 175
242 210 192 210 213 192 262 160 210 210 233 242 195 227 182 124 113 144 176 185 193 170 186 194 191 188 189 186 185 189 191 196 191 199 194 188 205 216 197 204 174 186 184 174
218 223 197 226 201 186 183 191 187 202 215 224 208 209 85 97 96 181 198 176 196 177 177 199 186 187 188 189 190 190 200 202 203 203 204 210 199 210 237 177 213 207 212 192
198 184 177 207 232 177 203 208 198 189 205 203 185 154 111 103 104 78 94 186 179 204 170 178 189 189 190 196 195 198 202 214 206 208 212 215 215 206 218 223 219 214 216 182
183 160 115 238 237 273 198 234 234 274 200 214 120 100 118 115 109 112 100 84 132 185 182 175 194 187 192 195 199 201 204 221 211 214 216 217 218 205 210 216 227 222 225 233
270 130 188 173 250 244 266 220 240 241 238 208 150 159 136 139 108 90 86 57 37 36 40 46 236 200 195 197 201 206 208 213 212 211 214 216 219 221 206 209 212 214 221 250
304 197 168 170 206 206 213 241 235 231 256 213 154 112 118 119 118 109 70 55 51 44 40 50 40 255 240 210 204 206 210 213 215 216 215 215 217 216 217 211 216 225 220 215
292 274 162 202 80 314 295 230 235 239 227 267 315 99 121 131 122 99 86 74 58 50 45 39 32 39 82 123 206 222 209 213 219 220 218 220 219 215 217 215 214 222 232 226
355 259 150 182 187 210 237 216 268 233 262 236 252 138 146 120 108 102 108 101 81 70 63 57 45 34 28 25 124 181 208 220 216 217 219 219 221 220 217 221 215 216 230 238
285 262 277 8 275 194 212 219 235 270 241 250 258 138 154 130 121 115 102 89 80 72 63 56 52 42 33 31 19 186 156 163 219 220 216 217 219 221 221 222 223 219 222 232
303 262 267 61 6 339 179 199 206 243 257 312 129 135 136 127 109 100 107 93 82 71 61 56 50 44 40 31 27 10 157 275 205 219 227 214 218 222 224 223 224 225 224 227
262 212 288 212 259 255 247 201 217 281 336 259 111 108 101 122 123 108 99 91 77 63 54 50 46 42 37 34 26 18 356 243 208 193 228 244 220 222 227 227 225 227 228 229
261 247 222 256 181 259 245 237 211 216 212 305 166 142 142 130 121 115 102 82 68 59 48 40 34 31 28 27 22 18 11 356 277 217 229 238 240 243 232 231 229 230 232 227
233 238 238 254 162 236 95 10 315 197 150 92 96 126 134 133 139 121 93 70 49 38 32 28 22 16 17 16 15 18 15 7 3 289 255 238 226 237 238 235 232 233 234 236
255 234 230 250 212 153 162 171 176 184 158 209 135 143 147 151 145 135 106 56 40 17 4 358 356 356 358 358 358 360 10 9 4 359 336 283 262 253 240 240 247 246 240 238
208 263 255 216 263 228 81 102 65 233 178 169 168 156 158 190 210 111 96 8 355 343 338 335 332 336 331 337 337 340 345 352 350 355 350 355 342 294 274 260 253 241 240 242
201 217 226 231 239 118 106 126 159 208 113 143 153 139 156 236 55 85 48 16 356 341 329 317 322 315 317 321 322 321 322 327 326 329 332 333 332 332 323 284 254 274 261 253
206 204 218 244 230 233 132 141 230 95 127 130 130 122 114 103 76 67 39 18 7 358 346 333 318 305 301 305 311 308 307 302 305 311 312 313 316 310 313 307 299 284 291 283
276 268 262 309 36 93 139 76 126 138 140 131 132 130 119 111 63 8 350 349 348 348 343 340 327 314 310 303 300 301 299 302 296 291 297 298 301 305 302 301 311 310 315 291
235 270 260 322 177 168 149 135 155 164 139 144 138 129 124 100 48 359 338 335 333 336 338 341 332 323 310 307 303 294 293 293 292 289 286 292 291 296 297 291 288 290 281 279
252 162 220 238 143 177 192 186 169 157 151 150 140 132 110 84 32 357 342 331 325 322 329 325 325 321 319 317 313 309 298 287 286 284 282 278 285 285 286 290 283 276 267 274
236 229 215 237 216 205 221 196 186 184 184 180 178 174 165 38 5 349 339 326 317 314 316 321 321 315 313 311 311 312 296 273 274 276 274 274 273 279 278 277 286 286 284 279